Time,TemperatureF,DewpointF,PressureIn,WindDirection,WindDirectionDegrees,WindSpeedMPH,WindSpeedGustMPH,Humidity,HourlyPrecipIn,Conditions,Clouds,dailyrainin,SoftwareType,DateUTC
2013-07-02 00:01:00,74.0,68.5,29.94,SSE,158,0.2,4.9,83,0.00,,,0.00,WUHU216HW,2013-07-02 04:01:00,
2013-07-02 00:02:00,73.8,68.3,29.94,West,270,0.2,4.9,83,0.00,,,0.00,WUHU216HW,2013-07-02 04:02:00,
2013-07-02 00:07:00,73.8,68.3,29.94,SW,225,0.0,4.9,83,0.00,,,0.00,WUHU216HW,2013-07-02 04:07:00,
2013-07-02 00:12:00,73.8,68.3,29.94,SE,135,1.1,4.9,83,0.00,,,0.00,WUHU216HW,2013-07-02 04:12:00,
2013-07-02 00:17:00,73.8,68.3,29.94,SSW,203,1.3,4.9,83,0.00,,,0.00,WUHU216HW,2013-07-02 04:17:00,
2013-07-02 00:22:00,73.6,68.1,29.94,SSW,203,0.2,4.9,83,0.00,,,0.00,WUHU216HW,2013-07-02 04:22:00,
2013-07-02 00:27:00,73.4,68.0,29.94,SW,225,0.2,4.9,83,0.00,,,0.00,WUHU216HW,2013-07-02 04:27:00,
2013-07-02 00:32:00,73.4,68.0,29.95,SE,135,0.4,4.9,83,0.00,,,0.00,WUHU216HW,2013-07-02 04:32:00,
2013-07-02 00:37:00,73.3,67.8,29.95,SE,135,0.4,4.9,83,0.00,,,0.00,WUHU216HW,2013-07-02 04:37:00,
2013-07-02 00:42:00,73.4,68.0,29.95,West,270,0.0,4.9,83,0.00,,,0.00,WUHU216HW,2013-07-02 04:42:00,
2013-07-02 00:47:00,73.3,67.8,29.95,SSE,158,0.0,4.9,83,0.00,,,0.00,WUHU216HW,2013-07-02 04:47:00,
2013-07-02 00:52:00,73.1,67.6,29.95,SSE,158,0.0,4.9,83,0.00,,,0.00,WUHU216HW,2013-07-02 04:52:00,
2013-07-02 00:57:00,73.1,67.6,29.95,SSW,203,0.0,4.9,83,0.00,,,0.00,WUHU216HW,2013-07-02 04:57:00,
2013-07-02 01:02:00,73.1,67.6,29.95,SSW,203,0.0,4.9,83,0.00,,,0.00,WUHU216HW,2013-07-02 05:02:00,
2013-07-02 01:07:00,72.9,67.4,29.95,SSW,203,0.0,4.9,83,0.00,,,0.00,WUHU216HW,2013-07-02 05:07:00,
2013-07-02 01:12:00,72.7,67.2,29.95,South,180,0.0,4.9,83,0.00,,,0.00,WUHU216HW,2013-07-02 05:12:00,
2013-07-02 01:17:00,72.7,67.6,29.96,WSW,248,0.4,4.9,84,0.00,,,0.00,WUHU216HW,2013-07-02 05:17:00,
2013-07-02 01:22:00,72.4,66.9,29.95,SW,225,0.0,4.9,83,0.00,,,0.00,WUHU216HW,2013-07-02 05:22:00,
2013-07-02 01:27:00,72.4,66.9,29.95,SSW,203,0.0,4.9,83,0.00,,,0.00,WUHU216HW,2013-07-02 05:27:00,
2013-07-02 01:32:00,72.4,67.2,29.96,SW,225,0.2,4.9,84,0.00,,,0.00,WUHU216HW,2013-07-02 05:32:00,
2013-07-02 01:37:00,72.2,67.1,29.96,WSW,248,0.0,4.9,84,0.00,,,0.00,WUHU216HW,2013-07-02 05:37:00,
2013-07-02 01:42:00,72.0,66.9,29.95,NNW,338,0.0,4.9,84,0.00,,,0.00,WUHU216HW,2013-07-02 05:42:00,
2013-07-02 01:47:00,71.8,66.7,29.95,NNW,338,0.0,4.9,84,0.00,,,0.00,WUHU216HW,2013-07-02 05:47:00,
2013-07-02 01:52:00,71.8,66.7,29.95,NNW,338,0.0,4.9,84,0.00,,,0.00,WUHU216HW,2013-07-02 05:52:00,
2013-07-02 01:57:00,71.8,66.7,29.95,NNW,338,0.0,4.9,84,0.00,,,0.00,WUHU216HW,2013-07-02 05:57:00,
2013-07-02 02:02:00,71.8,66.7,29.96,NNW,338,0.0,4.9,84,0.00,,,0.00,WUHU216HW,2013-07-02 06:02:00,
2013-07-02 02:07:00,71.8,66.7,29.95,NNW,338,0.0,4.9,84,0.00,,,0.00,WUHU216HW,2013-07-02 06:07:00,
2013-07-02 02:12:00,71.8,66.7,29.95,NNW,338,0.0,4.9,84,0.00,,,0.00,WUHU216HW,2013-07-02 06:12:00,
2013-07-02 02:17:00,71.6,66.5,29.95,NNW,338,0.0,4.9,84,0.00,,,0.00,WUHU216HW,2013-07-02 06:17:00,
2013-07-02 02:22:00,71.6,66.9,29.95,NNW,338,0.0,4.9,85,0.00,,,0.00,WUHU216HW,2013-07-02 06:22:00,
2013-07-02 02:27:00,71.6,66.9,29.95,NNW,338,0.0,4.9,85,0.00,,,0.00,WUHU216HW,2013-07-02 06:27:00,
2013-07-02 02:32:00,71.8,66.7,29.95,NNW,338,0.0,4.9,84,0.00,,,0.00,WUHU216HW,2013-07-02 06:32:00,
2013-07-02 02:37:00,71.8,66.7,29.95,NNW,338,0.0,4.9,84,0.00,,,0.00,WUHU216HW,2013-07-02 06:37:00,
2013-07-02 02:42:00,71.8,66.7,29.95,NNW,338,0.0,4.9,84,0.00,,,0.00,WUHU216HW,2013-07-02 06:42:00,
2013-07-02 02:47:00,72.0,67.2,29.95,NNW,338,0.0,4.9,85,0.00,,,0.00,WUHU216HW,2013-07-02 06:47:00,
2013-07-02 02:52:00,71.8,67.1,29.95,NNW,338,0.0,4.9,85,0.00,,,0.00,WUHU216HW,2013-07-02 06:52:00,
2013-07-02 02:57:00,71.8,67.1,29.96,SW,225,0.4,4.9,85,0.00,,,0.00,WUHU216HW,2013-07-02 06:57:00,
2013-07-02 03:02:00,71.8,67.1,29.95,SW,225,0.0,4.9,85,0.00,,,0.00,WUHU216HW,2013-07-02 07:02:00,
2013-07-02 03:07:00,71.8,67.1,29.95,WSW,248,0.0,4.9,85,0.00,,,0.00,WUHU216HW,2013-07-02 07:07:00,
2013-07-02 03:12:00,71.8,67.1,29.95,NNW,338,0.0,4.9,85,0.00,,,0.00,WUHU216HW,2013-07-02 07:12:00,
2013-07-02 03:17:00,71.6,66.9,29.96,WSW,248,0.7,4.9,85,0.00,,,0.00,WUHU216HW,2013-07-02 07:17:00,
2013-07-02 03:22:00,71.6,66.9,29.96,SW,225,0.2,4.9,85,0.00,,,0.00,WUHU216HW,2013-07-02 07:22:00,
2013-07-02 03:27:00,71.6,66.9,29.96,SSE,158,0.9,4.9,85,0.00,,,0.00,WUHU216HW,2013-07-02 07:27:00,
2013-07-02 03:32:00,71.6,66.9,29.96,SSE,158,0.4,4.9,85,0.00,,,0.00,WUHU216HW,2013-07-02 07:32:00,
2013-07-02 03:37:00,71.6,66.9,29.96,SSE,158,0.0,4.9,85,0.00,,,0.00,WUHU216HW,2013-07-02 07:37:00,
2013-07-02 03:42:00,71.8,67.4,29.96,SSE,158,0.0,4.9,86,0.00,,,0.00,WUHU216HW,2013-07-02 07:42:00,
2013-07-02 03:47:00,71.8,67.1,29.96,SSE,158,0.0,4.9,85,0.00,,,0.00,WUHU216HW,2013-07-02 07:47:00,
2013-07-02 03:52:00,71.8,67.1,29.96,SSE,158,0.0,4.9,85,0.00,,,0.00,WUHU216HW,2013-07-02 07:52:00,
2013-07-02 03:57:00,71.8,67.1,29.96,SSE,158,0.4,4.9,85,0.00,,,0.00,WUHU216HW,2013-07-02 07:57:00,
2013-07-02 04:04:00,72.0,67.2,29.96,SSE,158,0.0,4.9,85,0.00,,,0.00,WUHU216HW,2013-07-02 08:04:00,
2013-07-02 04:09:00,72.0,67.2,29.96,SSE,158,0.0,4.9,85,0.00,,,0.00,WUHU216HW,2013-07-02 08:09:00,
2013-07-02 04:14:00,72.0,67.2,29.96,South,180,0.0,4.9,85,0.00,,,0.00,WUHU216HW,2013-07-02 08:14:00,
2013-07-02 04:19:00,72.0,67.6,29.96,South,180,0.0,4.9,86,0.00,,,0.00,WUHU216HW,2013-07-02 08:19:00,
2013-07-02 04:24:00,71.8,67.4,29.97,SSW,203,0.4,4.9,86,0.00,,,0.00,WUHU216HW,2013-07-02 08:24:00,
2013-07-02 04:29:00,71.8,67.4,29.97,West,270,0.0,4.9,86,0.00,,,0.00,WUHU216HW,2013-07-02 08:29:00,
2013-07-02 04:34:00,71.8,67.4,29.97,West,270,0.0,4.9,86,0.00,,,0.00,WUHU216HW,2013-07-02 08:34:00,
2013-07-02 04:39:00,71.8,67.4,29.97,West,270,0.0,4.9,86,0.01,,,0.00,WUHU216HW,2013-07-02 08:39:00,
2013-07-02 04:44:00,71.8,67.4,29.97,SSW,203,0.0,4.9,86,0.05,,,0.00,WUHU216HW,2013-07-02 08:44:00,
2013-07-02 04:49:00,71.8,67.4,29.97,SSW,203,0.0,4.9,86,0.05,,,0.00,WUHU216HW,2013-07-02 08:49:00,
2013-07-02 04:54:00,72.0,67.6,29.97,SSW,203,0.0,4.9,86,0.05,,,0.00,WUHU216HW,2013-07-02 08:54:00,
2013-07-02 04:59:00,71.8,67.4,29.97,South,180,0.0,4.9,86,0.06,,,0.00,WUHU216HW,2013-07-02 08:59:00,
2013-07-02 05:04:00,71.8,67.8,29.97,SSW,203,0.9,4.9,87,0.06,,,0.00,WUHU216HW,2013-07-02 09:04:00,
2013-07-02 05:09:00,71.8,67.8,29.97,SE,135,1.1,4.9,87,0.06,,,0.00,WUHU216HW,2013-07-02 09:09:00,
2013-07-02 05:13:00,71.8,67.8,29.97,SE,135,0.7,4.9,87,0.06,,,0.00,WUHU216HW,2013-07-02 09:13:00,
2013-07-02 05:18:00,71.8,67.8,29.97,SSW,203,0.0,4.9,87,0.06,,,0.00,WUHU216HW,2013-07-02 09:18:00,
2013-07-02 05:23:00,71.8,67.8,29.97,SSW,203,0.2,4.9,87,0.06,,,0.00,WUHU216HW,2013-07-02 09:23:00,
2013-07-02 05:28:00,71.8,67.8,29.98,SSW,203,0.4,4.9,87,0.06,,,0.00,WUHU216HW,2013-07-02 09:28:00,
2013-07-02 05:33:00,71.8,67.8,29.98,WSW,248,0.0,4.9,87,0.06,,,0.00,WUHU216HW,2013-07-02 09:33:00,
2013-07-02 05:38:00,71.8,67.8,29.98,South,180,0.9,4.9,87,0.04,,,0.00,WUHU216HW,2013-07-02 09:38:00,
2013-07-02 05:43:00,71.8,67.8,29.98,SSE,158,0.2,4.9,87,0.01,,,0.00,WUHU216HW,2013-07-02 09:43:00,
2013-07-02 05:48:00,71.8,68.0,29.98,SW,225,1.8,4.9,88,0.01,,,0.00,WUHU216HW,2013-07-02 09:48:00,
2013-07-02 05:53:00,71.8,68.0,29.99,SSE,158,1.8,4.9,88,0.00,,,0.00,WUHU216HW,2013-07-02 09:53:00,
2013-07-02 05:58:00,71.8,68.0,29.99,WSW,248,0.4,4.9,88,0.00,,,0.00,WUHU216HW,2013-07-02 09:58:00,
2013-07-02 06:03:00,71.8,68.0,29.99,SSW,203,0.7,4.9,88,0.00,,,0.00,WUHU216HW,2013-07-02 10:03:00,
2013-07-02 06:08:00,71.8,68.0,29.99,SSE,158,0.4,4.9,88,0.00,,,0.00,WUHU216HW,2013-07-02 10:08:00,
2013-07-02 06:13:00,71.8,68.0,29.99,West,270,0.4,4.9,88,0.00,,,0.00,WUHU216HW,2013-07-02 10:13:00,
2013-07-02 06:18:00,72.0,68.2,29.99,SW,225,1.1,4.9,88,0.00,,,0.00,WUHU216HW,2013-07-02 10:18:00,
2013-07-02 06:23:00,72.0,68.2,30.00,SW,225,0.7,4.9,88,0.00,,,0.00,WUHU216HW,2013-07-02 10:23:00,
2013-07-02 06:28:00,72.0,68.2,30.00,SSW,203,0.7,4.9,88,0.00,,,0.00,WUHU216HW,2013-07-02 10:28:00,
2013-07-02 06:33:00,72.0,68.2,30.00,SE,135,1.1,4.9,88,0.00,,,0.00,WUHU216HW,2013-07-02 10:33:00,
2013-07-02 06:38:00,72.0,68.2,30.00,WSW,248,0.4,4.9,88,0.00,,,0.00,WUHU216HW,2013-07-02 10:38:00,
2013-07-02 06:43:00,72.2,68.4,30.01,South,180,0.0,4.9,88,0.00,,,0.00,WUHU216HW,2013-07-02 10:43:00,
2013-07-02 06:48:00,72.2,68.4,30.01,SSW,203,0.0,4.9,88,0.00,,,0.00,WUHU216HW,2013-07-02 10:48:00,
2013-07-02 06:53:00,72.2,68.4,30.01,WSW,248,0.9,4.9,88,0.00,,,0.00,WUHU216HW,2013-07-02 10:53:00,
2013-07-02 06:58:00,72.2,68.4,30.01,SSE,158,0.4,4.9,88,0.00,,,0.00,WUHU216HW,2013-07-02 10:58:00,
2013-07-02 07:03:00,72.4,68.6,30.01,SSE,158,0.2,4.9,88,0.00,,,0.00,WUHU216HW,2013-07-02 11:03:00,
2013-07-02 07:08:00,72.4,68.6,30.00,SSE,158,1.1,4.9,88,0.00,,,0.00,WUHU216HW,2013-07-02 11:08:00,
2013-07-02 07:13:00,72.4,68.6,30.00,NNE,23,1.6,4.9,88,0.00,,,0.00,WUHU216HW,2013-07-02 11:13:00,
2013-07-02 07:18:00,72.5,68.8,30.01,SSW,203,0.4,4.9,88,0.00,,,0.00,WUHU216HW,2013-07-02 11:18:00,
2013-07-02 07:23:00,72.4,68.6,30.01,SSE,158,0.9,4.9,88,0.00,,,0.00,WUHU216HW,2013-07-02 11:23:00,
2013-07-02 07:28:00,72.5,68.8,30.01,South,180,0.4,4.9,88,0.00,,,0.00,WUHU216HW,2013-07-02 11:28:00,
2013-07-02 07:33:00,72.7,68.9,30.01,SW,225,1.3,4.9,88,0.00,,,0.00,WUHU216HW,2013-07-02 11:33:00,
2013-07-02 07:38:00,72.9,69.1,30.01,SSW,203,0.2,4.9,88,0.00,,,0.00,WUHU216HW,2013-07-02 11:38:00,
2013-07-02 07:43:00,73.1,69.7,30.01,South,180,1.1,4.9,89,0.00,,,0.00,WUHU216HW,2013-07-02 11:43:00,
2013-07-02 07:48:00,73.4,70.0,30.01,SSE,158,1.3,4.9,89,0.00,,,0.00,WUHU216HW,2013-07-02 11:48:00,
2013-07-02 07:53:00,73.4,70.0,30.01,SSW,203,1.1,4.9,89,0.00,,,0.00,WUHU216HW,2013-07-02 11:53:00,
2013-07-02 07:58:00,73.6,69.8,30.02,SSE,158,1.6,4.9,88,0.00,,,0.00,WUHU216HW,2013-07-02 11:58:00,
2013-07-02 08:03:00,73.8,70.0,30.02,WSW,248,0.0,4.9,88,0.00,,,0.00,WUHU216HW,2013-07-02 12:03:00,
2013-07-02 08:08:00,74.0,70.2,30.02,SE,135,1.8,4.9,88,0.00,,,0.00,WUHU216HW,2013-07-02 12:08:00,
2013-07-02 08:13:00,74.2,70.4,30.02,SSW,203,1.6,4.9,88,0.00,,,0.00,WUHU216HW,2013-07-02 12:13:00,
2013-07-02 08:18:00,74.5,70.5,30.02,SSW,203,3.1,4.9,87,0.00,,,0.00,WUHU216HW,2013-07-02 12:18:00,
2013-07-02 08:23:00,74.9,70.8,30.02,SSW,203,1.8,4.9,87,0.00,,,0.00,WUHU216HW,2013-07-02 12:23:00,
2013-07-02 08:28:00,75.2,71.2,30.02,SSE,158,4.3,4.9,87,0.00,,,0.00,WUHU216HW,2013-07-02 12:28:00,
2013-07-02 08:33:00,75.2,70.5,30.02,SSW,203,3.6,4.9,85,0.00,,,0.00,WUHU216HW,2013-07-02 12:33:00,
2013-07-02 08:38:00,75.6,70.8,30.02,SSE,158,2.0,4.9,85,0.00,,,0.00,WUHU216HW,2013-07-02 12:38:00,
2013-07-02 08:43:00,75.8,70.7,30.02,South,180,1.8,4.9,84,0.00,,,0.00,WUHU216HW,2013-07-02 12:43:00,
2013-07-02 08:48:00,75.6,70.8,30.03,SW,225,2.5,5.4,85,0.00,,,0.00,WUHU216HW,2013-07-02 12:48:00,
2013-07-02 08:53:00,75.8,71.0,30.02,South,180,1.3,5.4,85,0.00,,,0.00,WUHU216HW,2013-07-02 12:53:00,
2013-07-02 08:58:00,76.0,70.8,30.03,WSW,248,4.9,4.9,84,0.00,,,0.00,WUHU216HW,2013-07-02 12:58:00,
2013-07-02 09:03:00,76.1,71.3,30.03,WSW,248,3.6,4.9,85,0.00,,,0.00,WUHU216HW,2013-07-02 13:03:00,
2013-07-02 09:08:00,76.5,71.3,30.04,SSE,158,1.1,4.9,84,0.00,,,0.00,WUHU216HW,2013-07-02 13:08:00,
2013-07-02 09:13:00,77.0,72.2,30.03,South,180,0.4,4.9,85,0.00,,,0.00,WUHU216HW,2013-07-02 13:13:00,
2013-07-02 09:18:00,77.6,72.7,30.04,SW,225,1.6,4.9,85,0.00,,,0.00,WUHU216HW,2013-07-02 13:18:00,
2013-07-02 09:23:00,77.8,71.8,30.04,SSE,158,4.0,4.9,82,0.00,,,0.00,WUHU216HW,2013-07-02 13:23:00,
2013-07-02 09:28:00,77.9,72.0,30.03,SW,225,2.5,4.9,82,0.00,,,0.00,WUHU216HW,2013-07-02 13:28:00,
2013-07-02 09:34:00,78.3,72.4,30.03,SSE,158,2.2,4.9,82,0.00,,,0.00,WUHU216HW,2013-07-02 13:34:00,
2013-07-02 09:39:00,78.5,71.8,30.03,SSE,158,2.5,4.9,80,0.00,,,0.00,WUHU216HW,2013-07-02 13:39:00,
2013-07-02 09:45:00,78.8,71.8,30.03,SSE,158,2.5,4.9,79,0.00,,,0.00,WUHU216HW,2013-07-02 13:45:00,
2013-07-02 09:50:00,79.2,72.2,30.03,SE,135,2.7,4.9,79,0.00,,,0.00,WUHU216HW,2013-07-02 13:50:00,
2013-07-02 09:55:00,79.9,72.9,30.03,SSE,158,2.5,5.1,79,0.00,,,0.00,WUHU216HW,2013-07-02 13:55:00,
2013-07-02 10:00:00,80.5,73.0,30.03,South,180,2.7,5.4,78,0.00,,,0.00,WUHU216HW,2013-07-02 14:00:00,
2013-07-02 10:05:00,80.8,73.4,30.03,SSW,203,2.9,5.8,78,0.00,,,0.00,WUHU216HW,2013-07-02 14:05:00,
2013-07-02 10:10:00,80.6,72.0,30.04,WSW,248,2.0,5.8,75,0.00,,,0.00,WUHU216HW,2013-07-02 14:10:00,
2013-07-02 10:15:00,80.6,72.4,30.04,SW,225,3.4,4.9,76,0.00,,,0.00,WUHU216HW,2013-07-02 14:15:00,
2013-07-02 10:20:00,80.5,71.8,30.04,South,180,6.7,6.7,75,0.00,,,0.00,WUHU216HW,2013-07-02 14:20:00,
2013-07-02 10:26:00,80.3,71.3,30.04,SW,225,2.2,6.7,74,0.00,,,0.00,WUHU216HW,2013-07-02 14:26:00,
2013-07-02 10:31:00,80.3,71.6,30.04,SW,225,7.8,7.8,75,0.00,,,0.00,WUHU216HW,2013-07-02 14:31:00,
2013-07-02 10:36:00,80.3,71.6,30.05,SSW,203,2.5,8.5,75,0.00,,,0.00,WUHU216HW,2013-07-02 14:36:00,
2013-07-02 10:41:00,80.1,70.7,30.05,SSW,203,3.8,8.5,73,0.00,,,0.00,WUHU216HW,2013-07-02 14:41:00,
2013-07-02 10:46:00,79.9,71.3,30.05,SSW,203,1.8,5.4,75,0.00,,,0.00,WUHU216HW,2013-07-02 14:46:00,
2013-07-02 10:51:00,79.9,71.3,30.05,SW,225,2.9,5.6,75,0.00,,,0.00,WUHU216HW,2013-07-02 14:51:00,
2013-07-02 10:56:00,79.9,71.3,30.05,SSW,203,1.8,5.6,75,0.00,,,0.00,WUHU216HW,2013-07-02 14:56:00,
2013-07-02 11:01:00,79.9,71.3,30.05,South,180,4.7,5.8,75,0.00,,,0.00,WUHU216HW,2013-07-02 15:01:00,
2013-07-02 11:06:00,79.9,71.3,30.05,SSE,158,1.1,5.8,75,0.00,,,0.00,WUHU216HW,2013-07-02 15:06:00,
2013-07-02 11:11:00,79.9,71.3,30.06,SSW,203,3.8,4.9,75,0.00,,,0.00,WUHU216HW,2013-07-02 15:11:00,
2013-07-02 11:16:00,79.9,71.3,30.05,SW,225,1.1,4.9,75,0.00,,,0.00,WUHU216HW,2013-07-02 15:16:00,
2013-07-02 11:21:00,80.3,71.6,30.05,South,180,1.1,4.9,75,0.00,,,0.00,WUHU216HW,2013-07-02 15:21:00,
2013-07-02 11:26:00,80.8,71.7,30.05,SSE,158,4.3,4.9,74,0.00,,,0.00,WUHU216HW,2013-07-02 15:26:00,
2013-07-02 11:31:00,81.4,71.9,30.05,South,180,3.4,6.9,73,0.00,,,0.00,WUHU216HW,2013-07-02 15:31:00,
2013-07-02 11:36:00,81.9,72.4,30.05,WSW,248,3.4,6.9,73,0.00,,,0.00,WUHU216HW,2013-07-02 15:36:00,
2013-07-02 11:41:00,83.2,73.6,30.05,SSW,203,2.5,5.1,73,0.00,,,0.00,WUHU216HW,2013-07-02 15:41:00,
2013-07-02 11:46:00,84.2,73.4,30.05,SW,225,4.7,4.9,70,0.00,,,0.00,WUHU216HW,2013-07-02 15:46:00,
2013-07-02 11:51:00,85.0,72.8,30.05,WSW,248,5.6,6.3,67,0.00,,,0.00,WUHU216HW,2013-07-02 15:51:00,
2013-07-02 11:56:00,84.6,72.0,30.06,South,180,3.4,7.6,66,0.00,,,0.00,WUHU216HW,2013-07-02 15:56:00,
2013-07-02 12:01:00,83.9,72.2,30.06,WSW,248,1.3,7.6,68,0.00,,,0.00,WUHU216HW,2013-07-02 16:01:00,
2013-07-02 12:06:00,83.5,72.3,30.06,SSW,203,3.8,5.8,69,0.00,,,0.00,WUHU216HW,2013-07-02 16:06:00,
2013-07-02 12:11:00,83.9,72.2,30.06,SE,135,2.5,5.8,68,0.00,,,0.00,WUHU216HW,2013-07-02 16:11:00,
2013-07-02 12:16:00,83.9,73.1,30.06,SW,225,5.4,6.0,70,0.00,,,0.00,WUHU216HW,2013-07-02 16:16:00,
2013-07-02 12:21:00,84.4,72.3,30.06,SSE,158,6.3,6.3,67,0.00,,,0.00,WUHU216HW,2013-07-02 16:21:00,
2013-07-02 12:26:00,85.0,72.8,30.05,SE,135,1.1,6.3,67,0.00,,,0.00,WUHU216HW,2013-07-02 16:26:00,
2013-07-02 12:31:00,85.0,72.8,30.05,SW,225,1.1,4.9,67,0.00,,,0.00,WUHU216HW,2013-07-02 16:31:00,
2013-07-02 12:36:00,85.5,71.9,30.05,SE,135,3.4,4.9,64,0.00,,,0.00,WUHU216HW,2013-07-02 16:36:00,
2013-07-02 12:41:00,85.5,73.4,30.05,WSW,248,8.3,8.3,67,0.00,,,0.00,WUHU216HW,2013-07-02 16:41:00,
2013-07-02 12:46:00,85.9,72.7,30.05,South,180,6.3,8.3,65,0.00,,,0.00,WUHU216HW,2013-07-02 16:46:00,
2013-07-02 12:51:00,85.5,72.4,30.05,East,90,4.9,6.3,65,0.00,,,0.00,WUHU216HW,2013-07-02 16:51:00,
2013-07-02 12:56:00,85.5,72.4,30.05,SW,225,7.4,7.4,65,0.00,,,0.00,WUHU216HW,2013-07-02 16:56:00,
2013-07-02 13:01:00,85.7,72.1,30.05,WSW,248,5.1,8.1,64,0.00,,,0.00,WUHU216HW,2013-07-02 17:01:00,
2013-07-02 13:06:00,85.7,72.1,30.05,SE,135,3.8,8.1,64,0.00,,,0.00,WUHU216HW,2013-07-02 17:06:00,
2013-07-02 13:11:00,85.9,73.2,30.05,SSW,203,4.9,5.4,66,0.00,,,0.00,WUHU216HW,2013-07-02 17:11:00,
2013-07-02 13:16:00,85.9,73.2,30.05,SSE,158,0.7,6.3,66,0.00,,,0.00,WUHU216HW,2013-07-02 17:16:00,
2013-07-02 13:21:00,85.9,73.2,30.05,South,180,0.7,6.3,66,0.00,,,0.00,WUHU216HW,2013-07-02 17:21:00,
2013-07-02 13:26:00,85.3,72.7,30.05,SSE,158,0.9,4.9,66,0.00,,,0.00,WUHU216HW,2013-07-02 17:26:00,
2013-07-02 13:31:00,84.8,72.6,30.05,SSW,203,4.5,4.9,67,0.00,,,0.00,WUHU216HW,2013-07-02 17:31:00,
2013-07-02 13:36:00,84.4,72.3,30.05,SE,135,3.1,4.9,67,0.00,,,0.00,WUHU216HW,2013-07-02 17:36:00,
2013-07-02 13:43:00,83.9,71.7,30.06,WNW,293,2.5,5.8,67,0.00,,,0.00,WUHU216HW,2013-07-02 17:43:00,
2013-07-02 13:48:00,83.7,71.6,30.06,SW,225,1.3,6.7,67,0.00,,,0.00,WUHU216HW,2013-07-02 17:48:00,
2013-07-02 13:53:00,83.2,71.5,30.06,SW,225,3.8,6.7,68,0.00,,,0.00,WUHU216HW,2013-07-02 17:53:00,
2013-07-02 13:58:00,83.2,71.5,30.06,WSW,248,5.4,5.4,68,0.00,,,0.00,WUHU216HW,2013-07-02 17:58:00,
2013-07-02 14:03:00,82.8,71.1,30.06,South,180,8.1,8.1,68,0.00,,,0.00,WUHU216HW,2013-07-02 18:03:00,
2013-07-02 14:08:00,82.6,71.4,30.06,WSW,248,2.2,8.1,69,0.00,,,0.00,WUHU216HW,2013-07-02 18:08:00,
2013-07-02 14:13:00,82.4,71.6,30.06,SW,225,2.5,6.0,70,0.00,,,0.00,WUHU216HW,2013-07-02 18:13:00,
2013-07-02 14:18:00,82.4,72.1,30.06,SSW,203,3.4,6.0,71,0.00,,,0.00,WUHU216HW,2013-07-02 18:18:00,
2013-07-02 14:23:00,82.1,70.8,30.06,SSW,203,4.5,8.5,69,0.00,,,0.00,WUHU216HW,2013-07-02 18:23:00,
2013-07-02 14:28:00,81.7,71.0,30.06,SW,225,3.4,8.5,70,0.00,,,0.00,WUHU216HW,2013-07-02 18:28:00,
2013-07-02 14:33:00,81.4,71.1,30.06,SSE,158,3.6,4.9,71,0.00,,,0.00,WUHU216HW,2013-07-02 18:33:00,
2013-07-02 14:38:00,81.5,71.3,30.06,SSE,158,6.5,6.5,71,0.00,,,0.00,WUHU216HW,2013-07-02 18:38:00,
2013-07-02 14:43:00,81.7,71.4,30.06,SSW,203,1.8,6.5,71,0.00,,,0.00,WUHU216HW,2013-07-02 18:43:00,
2013-07-02 14:48:00,81.4,71.5,30.06,West,270,0.7,5.6,72,0.00,,,0.00,WUHU216HW,2013-07-02 18:48:00,
2013-07-02 14:53:00,81.0,71.1,30.06,South,180,4.3,5.1,72,0.00,,,0.00,WUHU216HW,2013-07-02 18:53:00,
2013-07-02 14:58:00,81.0,71.6,30.06,SW,225,2.5,5.1,73,0.00,,,0.00,WUHU216HW,2013-07-02 18:58:00,
2013-07-02 15:03:00,80.6,71.2,30.06,SW,225,3.1,8.5,73,0.00,,,0.00,WUHU216HW,2013-07-02 19:03:00,
2013-07-02 15:08:00,80.3,71.3,30.06,SW,225,3.8,8.5,74,0.00,,,0.00,WUHU216HW,2013-07-02 19:08:00,
2013-07-02 15:13:00,80.1,70.7,30.06,South,180,4.0,4.9,73,0.00,,,0.00,WUHU216HW,2013-07-02 19:13:00,
2013-07-02 15:18:00,79.9,70.9,30.06,SW,225,4.0,6.3,74,0.00,,,0.00,WUHU216HW,2013-07-02 19:18:00,
2013-07-02 15:23:00,80.1,71.1,30.06,SW,225,4.0,6.3,74,0.00,,,0.00,WUHU216HW,2013-07-02 19:23:00,
2013-07-02 15:28:00,80.3,70.8,30.06,SW,225,2.5,5.4,73,0.00,,,0.00,WUHU216HW,2013-07-02 19:28:00,
2013-07-02 15:33:00,80.3,70.8,30.06,SSE,158,4.0,7.4,73,0.00,,,0.00,WUHU216HW,2013-07-02 19:33:00,
2013-07-02 15:38:00,80.5,71.0,30.06,SSE,158,3.1,7.4,73,0.00,,,0.00,WUHU216HW,2013-07-02 19:38:00,
2013-07-02 15:42:00,80.6,71.2,30.06,South,180,2.7,6.5,73,0.00,,,0.00,WUHU216HW,2013-07-02 19:42:00,
2013-07-02 15:47:00,81.0,71.6,30.06,SW,225,4.5,6.5,73,0.00,,,0.00,WUHU216HW,2013-07-02 19:47:00,
2013-07-02 15:52:00,81.2,70.9,30.05,SSE,158,1.3,5.4,71,0.00,,,0.00,WUHU216HW,2013-07-02 19:52:00,
2013-07-02 15:58:00,81.4,71.5,30.05,SE,135,4.0,5.4,72,0.00,,,0.00,WUHU216HW,2013-07-02 19:58:00,
2013-07-02 16:03:00,81.5,71.3,30.05,SSW,203,3.4,4.9,71,0.00,,,0.00,WUHU216HW,2013-07-02 20:03:00,
2013-07-02 16:08:00,81.4,71.1,30.05,SE,135,1.8,4.9,71,0.00,,,0.00,WUHU216HW,2013-07-02 20:08:00,
2013-07-02 16:13:00,81.4,71.5,30.05,SSW,203,1.3,5.4,72,0.00,,,0.00,WUHU216HW,2013-07-02 20:13:00,
2013-07-02 16:18:00,81.2,71.3,30.05,West,270,1.8,5.4,72,0.00,,,0.00,WUHU216HW,2013-07-02 20:18:00,
2013-07-02 16:23:00,81.0,71.1,30.05,West,270,2.9,4.9,72,0.00,,,0.00,WUHU216HW,2013-07-02 20:23:00,
2013-07-02 16:28:00,80.8,71.0,30.05,WSW,248,2.0,4.9,72,0.00,,,0.00,WUHU216HW,2013-07-02 20:28:00,
2013-07-02 16:33:00,80.6,70.8,30.05,SW,225,4.7,4.9,72,0.00,,,0.00,WUHU216HW,2013-07-02 20:33:00,
2013-07-02 16:39:00,80.6,71.2,30.06,SE,135,4.3,4.9,73,0.00,,,0.00,WUHU216HW,2013-07-02 20:39:00,
2013-07-02 16:44:00,80.6,70.8,30.06,SSE,158,3.1,4.9,72,0.00,,,0.00,WUHU216HW,2013-07-02 20:44:00,
2013-07-02 16:49:00,80.6,71.2,30.06,SSW,203,3.4,6.0,73,0.00,,,0.00,WUHU216HW,2013-07-02 20:49:00,
2013-07-02 16:54:00,80.5,70.7,30.06,SSE,158,2.2,6.0,72,0.00,,,0.00,WUHU216HW,2013-07-02 20:54:00,
2013-07-02 17:00:00,80.5,71.0,30.06,SSE,158,2.5,5.4,73,0.00,,,0.00,WUHU216HW,2013-07-02 21:00:00,
2013-07-02 17:05:00,80.1,70.3,30.06,SSW,203,2.2,6.3,72,0.00,,,0.00,WUHU216HW,2013-07-02 21:05:00,
2013-07-02 17:10:00,79.9,70.5,30.06,South,180,1.3,6.3,73,0.00,,,0.00,WUHU216HW,2013-07-02 21:10:00,
2013-07-02 17:15:00,80.1,70.7,30.06,SSE,158,4.0,4.9,73,0.00,,,0.00,WUHU216HW,2013-07-02 21:15:00,
2013-07-02 17:22:00,79.9,70.5,30.07,South,180,2.7,4.9,73,0.00,,,0.00,WUHU216HW,2013-07-02 21:22:00,
2013-07-02 17:27:00,79.7,70.3,30.07,SSW,203,1.1,4.9,73,0.00,,,0.00,WUHU216HW,2013-07-02 21:27:00,
2013-07-02 17:33:00,79.7,70.3,30.07,SE,135,3.6,4.9,73,0.00,,,0.00,WUHU216HW,2013-07-02 21:33:00,
2013-07-02 17:38:00,79.4,69.9,30.06,SSE,158,1.1,5.1,73,0.00,,,0.00,WUHU216HW,2013-07-02 21:38:00,
2013-07-02 17:43:00,79.2,69.4,30.07,SE,135,3.8,6.0,72,0.00,,,0.00,WUHU216HW,2013-07-02 21:43:00,
2013-07-02 17:48:00,78.5,68.7,30.07,SE,135,2.9,6.0,72,0.00,,,0.00,WUHU216HW,2013-07-02 21:48:00,
2013-07-02 17:53:00,78.1,69.1,30.07,SSW,203,2.0,4.9,74,0.00,,,0.00,WUHU216HW,2013-07-02 21:53:00,
2013-07-02 17:58:00,77.8,68.8,30.07,East,90,2.0,4.9,74,0.00,,,0.00,WUHU216HW,2013-07-02 21:58:00,
2013-07-02 18:03:00,77.8,68.8,30.07,South,180,3.8,4.9,74,0.00,,,0.00,WUHU216HW,2013-07-02 22:03:00,
2013-07-02 18:08:00,77.6,68.6,30.07,SW,225,0.7,4.9,74,0.00,,,0.00,WUHU216HW,2013-07-02 22:08:00,
2013-07-02 18:13:00,77.6,68.6,30.07,SSE,158,1.8,4.9,74,0.00,,,0.00,WUHU216HW,2013-07-02 22:13:00,
2013-07-02 18:18:00,77.4,68.5,30.08,SSW,203,2.0,5.1,74,0.00,,,0.00,WUHU216HW,2013-07-02 22:18:00,
2013-07-02 18:23:00,77.4,68.9,30.08,SSE,158,2.5,5.1,75,0.00,,,0.00,WUHU216HW,2013-07-02 22:23:00,
2013-07-02 18:28:00,77.2,68.7,30.08,SE,135,0.4,4.9,75,0.00,,,0.00,WUHU216HW,2013-07-02 22:28:00,
2013-07-02 18:33:00,77.0,68.9,30.08,SE,135,1.1,4.9,76,0.00,,,0.00,WUHU216HW,2013-07-02 22:33:00,
2013-07-02 18:38:00,76.9,68.7,30.08,SSE,158,0.4,4.9,76,0.00,,,0.00,WUHU216HW,2013-07-02 22:38:00,
2013-07-02 18:44:00,76.9,68.7,30.08,SW,225,1.1,4.9,76,0.00,,,0.00,WUHU216HW,2013-07-02 22:44:00,
2013-07-02 18:49:00,76.7,68.5,30.08,SE,135,1.1,4.9,76,0.00,,,0.00,WUHU216HW,2013-07-02 22:49:00,
2013-07-02 18:55:00,76.7,68.5,30.08,South,180,1.8,4.9,76,0.00,,,0.00,WUHU216HW,2013-07-02 22:55:00,
2013-07-02 19:00:00,76.7,69.0,30.08,South,180,4.0,4.9,77,0.00,,,0.00,WUHU216HW,2013-07-02 23:00:00,
2013-07-02 19:06:00,76.5,68.8,30.08,SSW,203,1.8,4.9,77,0.00,,,0.00,WUHU216HW,2013-07-02 23:06:00,
2013-07-02 19:11:00,76.5,69.1,30.08,WSW,248,1.8,4.9,78,0.00,,,0.00,WUHU216HW,2013-07-02 23:11:00,
2013-07-02 19:16:00,76.3,68.9,30.09,SSE,158,0.9,4.9,78,0.00,,,0.00,WUHU216HW,2013-07-02 23:16:00,
2013-07-02 19:21:00,76.3,68.9,30.09,South,180,3.8,4.9,78,0.00,,,0.00,WUHU216HW,2013-07-02 23:21:00,
2013-07-02 19:26:00,76.1,68.8,30.09,SW,225,4.7,5.4,78,0.00,,,0.00,WUHU216HW,2013-07-02 23:26:00,
2013-07-02 19:29:00,76.1,68.8,30.09,WSW,248,2.0,5.4,78,0.00,,,0.00,WUHU216HW,2013-07-02 23:29:00,
2013-07-02 19:34:00,76.1,68.8,30.09,SW,225,3.4,5.4,78,0.00,,,0.00,WUHU216HW,2013-07-02 23:34:00,
2013-07-02 19:39:00,76.0,68.7,30.09,South,180,1.8,4.9,78,0.00,,,0.00,WUHU216HW,2013-07-02 23:39:00,
2013-07-02 19:44:00,76.0,68.7,30.09,SSW,203,2.0,4.9,78,0.00,,,0.00,WUHU216HW,2013-07-02 23:44:00,
2013-07-02 19:49:00,76.0,69.0,30.09,SW,225,1.8,4.9,79,0.00,,,0.00,WUHU216HW,2013-07-02 23:49:00,
2013-07-02 19:54:00,75.8,68.5,30.10,South,180,2.0,4.9,78,0.00,,,0.00,WUHU216HW,2013-07-02 23:54:00,
2013-07-02 19:59:00,75.6,68.3,30.10,South,180,1.1,4.9,78,0.00,,,0.00,WUHU216HW,2013-07-02 23:59:00,
2013-07-02 20:01:00,75.6,68.3,30.10,SSW,203,1.1,4.9,78,0.00,,,0.00,WUHU216HW,2013-07-03 00:01:00,
2013-07-02 20:06:00,75.6,68.3,30.10,SSW,203,0.4,5.4,78,0.00,,,0.00,WUHU216HW,2013-07-03 00:06:00,
2013-07-02 20:11:00,75.6,68.7,30.10,South,180,2.5,5.4,79,0.00,,,0.00,WUHU216HW,2013-07-03 00:11:00,
2013-07-02 20:16:00,75.6,68.7,30.10,SSE,158,0.7,4.9,79,0.00,,,0.00,WUHU216HW,2013-07-03 00:16:00,
2013-07-02 20:21:00,75.4,68.5,30.10,South,180,1.1,4.9,79,0.00,,,0.00,WUHU216HW,2013-07-03 00:21:00,
2013-07-02 20:23:00,75.2,68.4,30.10,SSE,158,2.2,4.9,79,0.00,,,0.00,WUHU216HW,2013-07-03 00:23:00,
2013-07-02 20:24:00,75.2,68.8,30.10,SSW,203,1.8,4.9,80,0.00,,,0.00,WUHU216HW,2013-07-03 00:24:00,
2013-07-02 20:28:00,75.1,68.2,30.10,WSW,248,0.9,4.9,79,0.00,,,0.00,WUHU216HW,2013-07-03 00:28:00,
2013-07-02 20:33:00,74.9,68.4,30.10,WSW,248,1.6,4.9,80,0.00,,,0.00,WUHU216HW,2013-07-03 00:33:00,
2013-07-02 20:38:00,74.9,68.4,30.10,WSW,248,1.8,4.9,80,0.00,,,0.00,WUHU216HW,2013-07-03 00:38:00,
2013-07-02 20:43:00,74.7,68.2,30.10,South,180,1.1,4.9,80,0.00,,,0.00,WUHU216HW,2013-07-03 00:43:00,
2013-07-02 20:48:00,74.7,68.6,30.10,SW,225,2.2,4.9,81,0.00,,,0.00,WUHU216HW,2013-07-03 00:48:00,
2013-07-02 20:53:00,74.5,68.4,30.10,West,270,0.9,4.9,81,0.00,,,0.00,WUHU216HW,2013-07-03 00:53:00,
2013-07-02 20:58:00,74.3,68.2,30.10,SW,225,1.8,4.9,81,0.00,,,0.00,WUHU216HW,2013-07-03 00:58:00,
2013-07-02 21:00:00,74.5,68.4,30.10,SSW,203,1.1,4.9,81,0.00,,,0.00,WUHU216HW,2013-07-03 01:00:00,
2013-07-02 21:03:00,74.5,68.4,30.10,SW,225,1.1,4.9,81,0.00,,,0.00,WUHU216HW,2013-07-03 01:03:00,
2013-07-02 21:08:00,74.2,68.1,30.10,WSW,248,1.8,4.9,81,0.00,,,0.00,WUHU216HW,2013-07-03 01:08:00,
2013-07-02 21:09:00,74.2,68.1,30.10,WSW,248,1.3,4.9,81,0.00,,,0.00,WUHU216HW,2013-07-03 01:09:00,
2013-07-02 21:14:00,73.8,67.7,30.10,SSW,203,0.2,4.9,81,0.00,,,0.00,WUHU216HW,2013-07-03 01:14:00,
2013-07-02 21:19:00,73.8,68.1,30.10,NW,315,0.0,4.9,82,0.00,,,0.00,WUHU216HW,2013-07-03 01:19:00,
2013-07-02 21:24:00,73.8,68.1,30.10,SSW,203,1.1,4.9,82,0.00,,,0.00,WUHU216HW,2013-07-03 01:24:00,
2013-07-02 21:26:00,73.8,68.1,30.10,SSE,158,1.1,4.9,82,0.00,,,0.00,WUHU216HW,2013-07-03 01:26:00,
2013-07-02 21:31:00,74.0,68.2,30.10,SSE,158,0.7,4.9,82,0.00,,,0.00,WUHU216HW,2013-07-03 01:31:00,
2013-07-02 21:36:00,74.0,68.2,30.10,SSE,158,0.2,4.9,82,0.00,,,0.00,WUHU216HW,2013-07-03 01:36:00,
2013-07-02 21:42:00,74.0,67.9,30.10,South,180,0.4,4.9,81,0.00,,,0.00,WUHU216HW,2013-07-03 01:42:00,
2013-07-02 21:47:00,74.0,68.2,30.10,SSW,203,0.4,4.9,82,0.00,,,0.00,WUHU216HW,2013-07-03 01:47:00,
2013-07-02 21:49:00,73.8,68.1,30.10,SW,225,0.4,4.9,82,0.00,,,0.00,WUHU216HW,2013-07-03 01:49:00,
2013-07-02 21:50:00,73.8,68.1,30.11,South,180,0.2,4.9,82,0.00,,,0.00,WUHU216HW,2013-07-03 01:50:00,
2013-07-02 21:55:00,73.4,67.7,30.11,SSW,203,1.3,4.9,82,0.00,,,0.00,WUHU216HW,2013-07-03 01:55:00,
2013-07-02 22:00:00,73.3,67.8,30.11,SSW,203,2.9,4.9,83,0.00,,,0.00,WUHU216HW,2013-07-03 02:00:00,
2013-07-02 22:05:00,73.1,67.6,30.11,SW,225,1.6,4.9,83,0.00,,,0.00,WUHU216HW,2013-07-03 02:05:00,
2013-07-02 22:11:00,73.1,67.6,30.11,SW,225,3.8,4.9,83,0.00,,,0.00,WUHU216HW,2013-07-03 02:11:00,
2013-07-02 22:16:00,73.1,67.6,30.12,SSW,203,2.0,5.4,83,0.00,,,0.00,WUHU216HW,2013-07-03 02:16:00,
2013-07-02 22:21:00,73.1,67.6,30.11,SW,225,4.5,5.4,83,0.00,,,0.00,WUHU216HW,2013-07-03 02:21:00,
2013-07-02 22:26:00,73.1,67.6,30.11,South,180,1.3,4.9,83,0.00,,,0.00,WUHU216HW,2013-07-03 02:26:00,
2013-07-02 22:31:00,73.1,67.6,30.11,SSE,158,1.3,4.9,83,0.00,,,0.00,WUHU216HW,2013-07-03 02:31:00,
2013-07-02 22:32:00,73.1,67.6,30.11,SSW,203,1.6,4.9,83,0.00,,,0.00,WUHU216HW,2013-07-03 02:32:00,
2013-07-02 22:37:00,73.1,67.6,30.11,SW,225,3.1,4.9,83,0.00,,,0.00,WUHU216HW,2013-07-03 02:37:00,
2013-07-02 22:42:00,73.1,67.6,30.11,SSE,158,1.3,4.9,83,0.00,,,0.00,WUHU216HW,2013-07-03 02:42:00,
2013-07-02 22:46:00,73.1,67.3,30.11,South,180,1.1,4.9,82,0.00,,,0.00,WUHU216HW,2013-07-03 02:46:00,
2013-07-02 22:51:00,73.3,67.5,30.11,SSE,158,2.0,6.0,82,0.00,,,0.00,WUHU216HW,2013-07-03 02:51:00,
2013-07-02 22:56:00,73.3,67.5,30.11,SSW,203,2.7,6.0,82,0.00,,,0.00,WUHU216HW,2013-07-03 02:56:00,
2013-07-02 23:01:00,73.3,67.5,30.11,SSW,203,1.1,4.9,82,0.00,,,0.00,WUHU216HW,2013-07-03 03:01:00,
2013-07-02 23:02:00,73.3,67.5,30.11,SSW,203,1.1,4.9,82,0.00,,,0.00,WUHU216HW,2013-07-03 03:02:00,
2013-07-02 23:07:00,73.1,67.3,30.11,SW,225,2.9,4.9,82,0.00,,,0.00,WUHU216HW,2013-07-03 03:07:00,
2013-07-02 23:12:00,73.1,67.3,30.11,SSW,203,1.3,4.9,82,0.00,,,0.00,WUHU216HW,2013-07-03 03:12:00,
2013-07-02 23:17:00,73.1,67.3,30.11,WSW,248,2.2,4.9,82,0.00,,,0.00,WUHU216HW,2013-07-03 03:17:00,
2013-07-02 23:20:00,73.1,67.6,30.11,WSW,248,5.4,5.4,83,0.00,,,0.00,WUHU216HW,2013-07-03 03:20:00,
2013-07-02 23:25:00,72.9,67.2,30.12,SSE,158,1.6,5.4,82,0.00,,,0.00,WUHU216HW,2013-07-03 03:25:00,
2013-07-02 23:30:00,72.7,67.2,30.12,WSW,248,1.8,4.9,83,0.00,,,0.00,WUHU216HW,2013-07-03 03:30:00,
2013-07-02 23:35:00,72.7,67.2,30.12,WNW,293,0.4,4.9,83,0.00,,,0.00,WUHU216HW,2013-07-03 03:35:00,
2013-07-02 23:39:00,72.5,66.8,30.12,West,270,0.0,4.9,82,0.00,,,0.00,WUHU216HW,2013-07-03 03:39:00,
2013-07-02 23:44:00,72.5,66.8,30.12,SSW,203,0.0,4.9,82,0.00,,,0.00,WUHU216HW,2013-07-03 03:44:00,
2013-07-02 23:49:00,72.7,67.0,30.12,SSW,203,1.8,4.9,82,0.00,,,0.00,WUHU216HW,2013-07-03 03:49:00,
2013-07-02 23:54:00,72.5,66.8,30.12,SSW,203,4.0,5.6,82,0.00,,,0.00,WUHU216HW,2013-07-03 03:54:00,
2013-07-02 23:59:00,72.5,66.4,30.12,WSW,248,5.4,5.6,81,0.00,,,0.00,WUHU216HW,2013-07-03 03:59:00,